Temp
-8 -8 -7 -6 -6 -6 -6 -7 -7 -7 -6 -6 -6 -5 -5 -6 -6 -5 -5 -5 -5 -5 -4 -4 -4 -5 -5 -5 -5 -6 -7 -7 -8 -8 -8 -7 -7 -6 -6 -6 -6 -7 -6 -6
-7 -7 -6 -6 -6 -6 -6 -7 -7 -7 -6 -6 -6 -6 -6 -6 -6 -6 -5 -5 -5 -5 -5 -5 -5 -5 -5 -5 -6 -6 -7 -7 -8 -9 -8 -8 -7 -6 -6 -6 -6 -7 -7 -6
-7 -6 -6 -6 -7 -7 -7 -7 -7 -7 -6 -6 -6 -6 -7 -6 -6 -6 -5 -5 -5 -5 -4 -5 -5 -5 -5 -5 -5 -6 -6 -6 -8 -9 -8 -8 -8 -7 -7 -7 -7 -7 -7 -7
-7 -6 -6 -6 -7 -7 -7 -6 -7 -7 -6 -7 -6 -7 -6 -7 -7 -6 -6 -5 -5 -5 -5 -5 -5 -5 -5 -5 -6 -6 -6 -7 -8 -8 -8 -8 -7 -7 -7 -7 -7 -7 -7 -7
-7 -6 -6 -7 -7 -6 -6 -6 -6 -6 -6 -6 -6 -6 -6 -7 -7 -7 -6 -6 -5 -5 -5 -5 -5 -6 -5 -5 -5 -6 -6 -7 -7 -7 -8 -8 -8 -8 -7 -8 -7 -7 -7 -8
-6 -7 -7 -7 -7 -6 -6 -6 -6 -6 -6 -6 -6 -6 -7 -7 -7 -6 -6 -6 -6 -6 -6 -6 -6 -6 -6 -6 -6 -6 -6 -6 -7 -7 -7 -7 -7 -7 -7 -7 -7 -7 -7 -7
-7 -7 -7 -7 -7 -7 -6 -6 -6 -6 -6 -7 -7 -7 -7 -7 -6 -6 -7 -7 -6 -6 -6 -7 -7 -7 -7 -7 -7 -6 -6 -7 -7 -7 -7 -7 -7 -7 -8 -7 -7 -7 -7 -7
-7 -6 -7 -7 -6 -6 -6 -6 -6 -6 -6 -6 -6 -6 -7 -8 -8 -7 -7 -8 -7 -7 -6 -6 -7 -7 -7 -7 -6 -6 -6 -6 -6 -7 -7 -8 -8 -8 -8 -8 -7 -7 -6 -7
-7 -7 -7 -7 -7 -6 -6 -6 -6 -6 -7 -7 -7 -7 -7 -6 -7 -7 -8 -8 -8 -9 -6 -6 -6 -7 -7 -7 -7 -6 -6 -7 -7 -7 -7 -7 -7 -7 -7 -8 -7 -6 -7 -7
-7 -7 -7 -7 -7 -7 -6 -6 -6 -6 -6 -7 -7 -7 -7 -6 -7 -8 -8 -8 -9 -9 -7 -7 -7 -7 -7 -8 -7 -7 -7 -7 -7 -7 -7 -7 -7 -7 -7 -8 -7 -7 -7 -7
-7 -7 -7 -7 -7 -7 -7 -6 -6 -6 -6 -7 -7 -7 -7 -7 -7 -7 -7 -6 -7 -9 -8 -7 -7 -7 -7 -7 -7 -7 -7 -7 -8 -7 -7 -7 -7 -8 -8 -8 -7 -7 -6 -7
-7 -7 -7 -7 -7 -7 -7 -7 -6 -6 -6 -6 -7 -7 -6 -6 -6 -6 -6 -7 -8 -8 -8 -6 -7 -8 -7 -7 -7 -7 -7 -7 -7 -7 -7 -7 -7 -7 -7 -7 -7 -7 -6 -7
-7 -7 -7 -7 -7 -7 -7 -7 -7 -7 -7 -7 -7 -6 -6 -6 -5 -7 -6 -7 -7 -7 -7 -7 -7 -7 -9 -7 -7 -7 -7 -7 -7 -6 -6 -7 -7 -7 -7 -7 -7 -8 -8 -8
-7 -7 -7 -7 -7 -7 -6 -7 -7 -7 -7 -7 -7 -6 -7 -7 -6 -6 -6 -6 -7 -7 -7 -7 -8 -8 -8 -8 -7 -7 -7 -7 -6 -6 -7 -7 -7 -7 -8 -8 -8 -7 -8 -8
-7 -7 -7 -7 -7 -7 -7 -7 -7 -7 -7 -7 -7 -7 -7 -6 -6 -6 -7 -7 -7 -7 -8 -9 -9 -8 -8 -8 -8 -7 -7 -7 -7 -7 -7 -7 -7 -7 -7 -7 -7 -7 -8 -8
-8 -8 -7 -6 -7 -7 -7 -7 -8 -7 -8 -8 -8 -7 -7 -6 -6 -6 -7 -7 -7 -7 -9 -8 -9 -9 -8 -8 -8 -7 -7 -7 -7 -7 -7 -7 -7 -7 -7 -7 -7 -7 -7 -7
-8 -7 -8 -7 -7 -7 -7 -7 -8 -8 -8 -8 -8 -8 -7 -7 -6 -6 -7 -7 -7 -8 -8 -8 -8 -8 -8 -7 -7 -7 -7 -7 -7 -7 -7 -6 -6 -6 -6 -6 -6 -6 -6 -7
-8 -8 -7 -7 -8 -8 -8 -7 -8 -8 -8 -8 -8 -8 -8 -8 -7 -6 -7 -7 -7 -7 -7 -8 -8 -8 -8 -7 -7 -8 -8 -7 -7 -7 -7 -7 -7 -6 -6 -6 -6 -6 -6 -6
-9 -8 -7 -7 -8 -7 -7 -8 -8 -8 -8 -8 -8 -8 -8 -7 -7 -6 -7 -7 -7 -7 -8 -8 -8 -8 -8 -7 -8 -8 -7 -7 -7 -7 -7 -7 -7 -7 -6 -6 -6 -6 -6 -6
-8 -9 -8 -8 -8 -8 -7 -8 -8 -8 -8 -8 -8 -8 -8 -7 -7 -6 -7 -7 -7 -7 -7 -7 -7 -7 -7 -8 -8 -8 -7 -7 -7 -7 -7 -7 -7 -7 -7 -7 -6 -6 -6 -6
-8 -8 -8 -9 -8 -8 -8 -8 -8 -8 -8 -8 -7 -8 -7 -7 -7 -7 -7 -7 -7 -7 -7 -7 -8 -8 -8 -8 -8 -7 -7 -7 -7 -7 -7 -7 -6 -6 -6 -7 -6 -6 -6 -6
-8 -8 -9 -9 -9 -8 -8 -8 -8 -8 -8 -8 -8 -8 -8 -8 -8 -7 -8 -8 -7 -7 -7 -8 -8 -8 -8 -8 -8 -7 -7 -7 -7 -7 -7 -7 -6 -6 -6 -6 -6 -6 -6 -6
-8 -8 -8 -8 -8 -8 -9 -8 -9 -9 -9 -9 -9 -8 -8 -8 -8 -8 -8 -8 -8 -8 -8 -8 -8 -8 -8 -8 -8 -7 -7 -7 -7 -7 -7 -7 -7 -6 -6 -6 -6 -6 -6 -6
-9 -9 -9 -9 -9 -8 -9 -8 -8 -8 -9 -9 -9 -9 -9 -9 -8 -9 -8 -8 -8 -8 -8 -8 -8 -8 -8 -8 -8 -7 -7 -7 -7 -7 -7 -7 -7 -7 -6 -6 -6 -6 -6 -6
-9 -10 -9 -9 -9 -9 -9 -9 -9 -9 -9 -9 -9 -8 -10 -9 -8 -8 -8 -8 -8 -8 -8 -8 -8 -8 -8 -8 -8 -8 -8 -8 -8 -7 -7 -7 -7 -7 -7 -7 -7 -7 -7 -7
-10 -10 -10 -10 -10 -10 -9 -9 -10 -10 -10 -9 -10 -9 -8 -8 -8 -9 -8 -8 -8 -9 -9 -8 -8 -8 -8 -8 -8 -8 -8 -8 -8 -8 -8 -8 -7 -7 -7 -7 -7 -7 -7 -7
Height
5905 5902 5907 5913 5917 5917 5917 5917 5916 5920 5923 5923 5921 5918 5914 5912 5913 5913 5912 5910 5907 5904 5904 5900 5899 5901 5903 5904 5907 5909 5911 5912 5916 5918 5921 5925 5925 5928 5927 5926 5925 5924 5926 5926
5911 5908 5910 5912 5916 5917 5915 5915 5917 5918 5921 5922 5921 5920 5917 5918 5918 5917 5915 5912 5910 5910 5907 5905 5903 5902 5902 5902 5904 5907 5910 5912 5913 5917 5920 5924 5926 5927 5925 5925 5924 5923 5922 5920
5909 5912 5912 5912 5913 5916 5918 5918 5918 5920 5920 5919 5921 5921 5919 5919 5920 5918 5916 5913 5912 5911 5910 5910 5909 5907 5905 5904 5903 5904 5907 5910 5913 5918 5921 5922 5924 5926 5924 5924 5921 5919 5920 5920
5910 5910 5910 5911 5915 5916 5918 5921 5920 5918 5919 5919 5919 5920 5920 5921 5919 5919 5917 5915 5914 5913 5912 5910 5910 5909 5909 5908 5907 5907 5909 5912 5915 5919 5921 5922 5924 5923 5923 5921 5919 5919 5918 5918
5910 5910 5910 5909 5910 5914 5918 5922 5923 5918 5918 5918 5918 5919 5921 5919 5918 5918 5918 5916 5916 5918 5916 5913 5913 5913 5912 5912 5911 5910 5911 5913 5917 5920 5921 5921 5921 5921 5921 5919 5919 5919 5919 5917
5911 5910 5908 5909 5910 5913 5917 5919 5921 5922 5919 5917 5919 5920 5916 5913 5916 5917 5918 5918 5918 5917 5916 5915 5915 5914 5914 5914 5913 5914 5915 5915 5916 5918 5920 5920 5919 5919 5919 5917 5917 5919 5917 5914
5909 5909 5909 5909 5911 5914 5916 5917 5918 5919 5918 5917 5916 5915 5915 5912 5913 5916 5917 5915 5916 5917 5915 5914 5916 5918 5915 5915 5915 5916 5917 5918 5918 5918 5918 5918 5918 5917 5917 5914 5917 5917 5916 5915
5907 5910 5910 5910 5912 5913 5914 5915 5916 5916 5916 5914 5912 5911 5911 5910 5911 5913 5917 5915 5917 5916 5916 5913 5915 5917 5917 5916 5916 5916 5916 5917 5918 5918 5918 5917 5916 5915 5916 5913 5912 5915 5915 5915
5906 5907 5910 5910 5910 5913 5914 5915 5916 5914 5912 5910 5911 5908 5907 5906 5906 5907 5906 5907 5909 5911 5912 5914 5916 5910 5912 5916 5916 5915 5916 5915 5916 5916 5916 5916 5914 5913 5913 5913 5910 5910 5912 5912
5906 5906 5909 5910 5910 5910 5912 5911 5912 5912 5910 5908 5907 5906 5904 5902 5900 5900 5900 5899 5896 5904 5911 5915 5916 5914 5913 5909 5915 5915 5915 5916 5912 5914 5915 5914 5913 5911 5910 5909 5910 5908 5909 5911
5904 5906 5909 5907 5908 5908 5910 5911 5910 5909 5909 5905 5904 5906 5902 5902 5903 5903 5899 5898 5898 5899 5911 5918 5913 5908 5910 5912 5911 5913 5913 5914 5913 5913 5914 5912 5911 5910 5908 5906 5906 5906 5906 5906
5903 5904 5905 5905 5905 5904 5904 5908 5906 5907 5907 5903 5902 5903 5903 5903 5899 5892 5889 5888 5890 5900 5909 5908 5905 5905 5906 5909 5909 5912 5913 5912 5911 5911 5911 5909 5909 5908 5907 5905 5902 5902 5900 5900
5900 5902 5903 5901 5902 5902 5903 5904 5903 5903 5903 5901 5900 5901 5899 5901 5898 5890 5891 5896 5899 5905 5903 5905 5903 5901 5906 5907 5907 5909 5909 5909 5908 5910 5908 5906 5906 5906 5905 5902 5900 5899 5897 5896
5895 5896 5896 5897 5898 5899 5899 5900 5900 5900 5899 5897 5897 5897 5896 5897 5900 5901 5896 5898 5900 5902 5903 5899 5895 5905 5906 5905 5905 5905 5904 5905 5904 5904 5903 5903 5903 5902 5901 5900 5898 5896 5895 5895
5890 5890 5889 5890 5893 5894 5897 5897 5896 5896 5895 5894 5894 5894 5893 5894 5896 5899 5900 5900 5898 5896 5896 5889 5899 5903 5904 5901 5901 5902 5902 5902 5902 5901 5901 5901 5901 5900 5899 5898 5896 5894 5893 5892
5885 5883 5883 5884 5887 5891 5891 5891 5892 5892 5890 5889 5889 5890 5890 5889 5890 5895 5897 5897 5899 5895 5894 5899 5898 5898 5901 5899 5899 5899 5899 5898 5897 5898 5898 5897 5898 5897 5897 5894 5893 5892 5891 5889
5877 5878 5878 5881 5884 5885 5887 5888 5888 5887 5886 5886 5886 5887 5887 5888 5889 5889 5889 5890 5891 5894 5894 5896 5897 5897 5897 5897 5896 5895 5894 5893 5893 5893 5893 5892 5892 5892 5892 5890 5889 5888 5886 5885
5873 5874 5875 5876 5877 5879 5883 5882 5882 5883 5883 5883 5883 5884 5885 5885 5887 5889 5891 5891 5892 5893 5895 5895 5892 5892 5892 5893 5892 5890 5888 5887 5887 5886 5886 5886 5885 5885 5884 5884 5883 5883 5882 5881
5867 5870 5869 5871 5872 5874 5877 5878 5878 5878 5879 5877 5877 5878 5880 5880 5882 5885 5886 5887 5888 5889 5890 5890 5887 5888 5888 5887 5886 5884 5884 5884 5884 5883 5883 5882 5881 5880 5879 5878 5877 5876 5875 5874
5862 5861 5863 5865 5865 5866 5872 5872 5871 5872 5872 5872 5873 5874 5874 5877 5878 5881 5883 5883 5883 5883 5884 5883 5883 5884 5884 5883 5882 5881 5881 5882 5881 5880 5880 5879 5878 5876 5875 5874 5872 5871 5869 5868
5851 5853 5853 5854 5856 5858 5863 5867 5866 5864 5867 5864 5868 5869 5869 5871 5874 5877 5877 5878 5878 5877 5875 5876 5878 5879 5879 5878 5877 5877 5877 5877 5876 5876 5876 5875 5874 5872 5870 5868 5866 5864 5863 5862
5837 5839 5843 5844 5845 5848 5856 5857 5858 5858 5857 5857 5858 5861 5863 5865 5868 5872 5873 5872 5872 5872 5871 5873 5873 5873 5873 5873 5872 5872 5872 5871 5871 5871 5870 5869 5868 5867 5865 5863 5861 5859 5857 5855
5821 5822 5829 5830 5831 5836 5841 5845 5846 5851 5851 5851 5851 5853 5855 5858 5861 5867 5868 5867 5866 5867 5868 5868 5868 5869 5868 5868 5868 5868 5867 5866 5866 5865 5864 5863 5862 5860 5859 5857 5855 5853 5850 5848
5804 5809 5810 5815 5817 5823 5828 5832 5836 5838 5841 5843 5844 5846 5849 5854 5859 5862 5862 5861 5862 5863 5864 5864 5864 5864 5864 5863 5862 5861 5861 5860 5859 5859 5858 5857 5856 5854 5853 5851 5849 5846 5844 5843
5788 5793 5794 5798 5803 5809 5815 5821 5825 5828 5832 5834 5837 5841 5843 5847 5852 5858 5859 5860 5860 5860 5860 5860 5860 5860 5858 5857 5855 5854 5853 5854 5853 5852 5852 5851 5849 5848 5847 5844 5842 5840 5838 5836
5769 5774 5776 5779 5787 5793 5801 5809 5813 5818 5821 5825 5828 5827 5834 5839 5845 5850 5851 5854 5855 5854 5854 5855 5855 5853 5852 5851 5850 5849 5849 5848 5847 5845 5845 5844 5843 5841 5840 5837 5835 5833 5831 5828
Wind_Speed
25 32 28 26 24 18 10 7 3 9 17 15 19 16 17 16 16 16 18 20 19 18 17 17 13 7 10 10 12 10 13 12 20 18 13 11 10 7 6 3 3 5 6 8
13 25 32 27 20 14 12 4 4 8 15 18 17 14 14 15 13 12 13 15 17 20 18 19 18 15 9 9 13 16 15 15 23 23 11 8 7 6 5 6 7 8 9 11
7 19 27 23 15 12 8 11 6 8 12 16 15 13 14 20 16 10 11 12 13 12 15 18 18 18 19 20 16 10 11 10 15 16 11 14 11 9 7 9 9 10 9 9
13 7 18 14 7 2 6 3 3 11 16 13 21 17 19 18 11 8 6 9 12 9 10 12 14 17 17 18 21 21 21 18 16 13 11 9 11 10 7 9 11 12 12 12
15 10 5 16 14 11 14 11 6 7 9 13 13 17 20 7 4 4 7 2 3 5 7 10 12 13 13 13 14 16 17 13 11 8 8 9 8 7 8 9 11 11 12 15
5 8 6 4 7 5 12 13 4 2 9 15 14 19 20 22 8 2 6 6 3 1 5 9 8 8 10 10 10 9 10 11 11 11 9 7 6 5 5 9 7 9 11 15
13 7 8 11 12 7 7 3 3 5 7 9 11 19 19 16 6 7 12 13 11 10 9 10 10 8 9 9 9 7 5 6 6 4 4 4 5 5 6 10 6 7 8 10
8 11 13 8 7 5 5 2 6 7 5 20 20 20 13 21 11 8 12 9 16 16 10 12 13 8 7 6 5 5 3 2 3 6 7 6 8 7 8 9 12 8 8 6
12 6 5 3 9 9 8 5 4 9 14 7 13 14 15 16 1 9 17 17 25 19 14 11 12 14 11 6 3 2 2 3 2 4 5 8 10 9 12 10 14 12 9 8
3 7 2 8 9 13 5 13 12 4 12 17 15 11 13 18 23 13 20 23 34 24 20 15 11 9 10 10 4 1 3 5 3 4 5 6 9 13 15 14 12 13 10 12
4 11 1 5 12 13 8 10 9 10 11 13 10 9 13 19 18 16 21 13 6 31 19 18 12 11 9 5 5 2 3 5 4 6 6 6 9 9 10 11 10 10 12 13
14 14 15 14 14 13 14 11 9 15 10 11 11 12 13 18 16 15 10 3 9 22 15 11 11 9 9 6 4 3 2 4 5 5 6 5 6 7 8 9 11 13 10 19
18 13 15 19 18 8 11 8 6 8 13 12 12 16 13 12 24 13 16 15 21 20 9 7 8 11 7 8 6 3 1 4 6 7 7 5 5 7 8 9 10 11 9 3
25 20 18 21 23 15 9 14 6 9 18 19 15 21 19 20 22 15 5 7 8 9 10 9 8 4 6 5 5 5 6 6 5 7 7 6 7 8 8 8 11 11 10 8
27 24 17 22 26 25 9 20 10 14 19 19 20 21 19 27 27 17 7 7 2 5 5 7 1 5 7 4 5 6 7 6 6 7 8 9 7 7 8 8 8 10 11 11
15 15 12 17 24 22 12 1 9 6 9 6 8 12 15 18 19 14 7 10 3 8 11 2 2 6 6 5 5 6 6 7 9 8 7 8 8 8 9 9 10 9 11 10
21 14 4 7 25 23 17 5 11 11 13 13 14 15 14 15 15 15 11 3 4 6 7 5 6 7 5 5 5 6 8 9 9 9 9 9 9 8 8 7 8 10 11 10
24 24 20 14 21 22 18 15 16 14 19 22 22 20 21 20 16 9 5 6 1 2 3 8 5 4 6 6 7 8 8 9 10 12 12 13 14 15 15 12 11 11 11 12
28 28 29 22 23 25 25 20 24 22 24 23 19 18 16 24 22 13 9 9 6 4 5 10 6 6 9 10 10 12 13 13 13 13 13 15 16 17 18 18 17 17 18 17
40 37 39 31 29 26 23 23 27 27 27 30 24 22 24 20 20 15 10 8 8 7 11 10 7 8 11 12 13 13 14 13 12 12 13 15 17 20 21 20 20 20 21 20
43 39 39 36 38 33 28 27 30 31 30 33 27 25 26 19 14 10 4 7 9 11 10 7 10 11 12 13 15 14 14 13 12 12 13 15 18 19 19 20 20 21 21 21
48 49 49 51 50 50 40 38 36 37 37 32 36 30 25 22 18 9 6 12 12 9 9 12 13 13 14 16 16 16 16 16 14 14 15 16 17 18 20 21 21 21 21 21
46 51 49 51 53 49 44 39 38 36 33 34 36 33 27 25 21 16 12 13 11 10 12 13 14 16 16 18 18 19 18 16 16 16 17 18 20 20 21 22 21 21 22 23
49 45 48 52 52 52 50 48 43 41 39 38 35 33 32 30 24 23 21 16 12 12 13 14 15 16 18 20 21 21 19 18 18 18 19 21 22 23 23 23 23 23 24 24
51 48 51 50 50 52 53 51 46 48 42 36 39 41 37 39 32 23 16 14 14 14 15 16 16 18 19 20 22 23 23 22 21 21 21 23 24 25 24 24 24 25 25 26
52 53 53 54 53 52 52 54 51 48 44 41 39 45 35 36 25 23 19 14 14 15 16 17 19 19 20 20 20 22 23 23 21 21 21 22 24 24 24 24 25 26 26 27
Wind_Direction
65 117 107 107 108 103 64 6 211 1 337 24 18 21 47 44 45 49 52 51 57 62 67 78 98 156 191 192 199 188 202 226 211 218 215 213 218 220 198 223 284 302 318 305
113 122 128 121 105 73 37 13 109 352 321 335 355 342 16 31 30 34 45 50 51 57 67 81 86 89 119 188 198 200 209 219 209 217 184 196 199 211 219 260 282 290 285 277
160 126 130 118 84 52 25 71 29 310 308 318 333 338 2 351 350 13 43 54 59 56 61 68 80 88 90 92 100 150 181 196 188 179 203 187 186 238 257 276 273 274 279 289
195 168 139 130 117 101 142 161 288 286 291 313 308 331 334 333 328 352 33 70 67 62 79 80 78 78 81 96 104 109 119 123 134 170 187 202 230 251 256 264 271 278 284 284
204 227 197 162 175 195 184 128 82 16 299 301 313 312 325 317 324 328 331 292 25 7 66 83 85 82 82 86 95 110 121 129 145 172 198 218 235 238 256 269 278 296 304 299
229 84 84 109 131 171 151 159 162 234 266 279 305 297 285 274 256 321 273 257 288 238 138 95 75 76 73 75 85 97 117 135 151 161 175 188 213 231 257 272 294 298 307 330
126 107 78 114 110 86 121 96 333 345 284 315 283 287 308 264 233 262 214 209 237 244 176 109 92 76 78 84 83 93 113 146 159 182 205 233 256 275 277 286 300 307 317 334
127 127 124 93 102 3 193 115 29 54 312 304 302 306 276 281 268 246 214 239 237 244 208 151 114 84 83 88 89 102 113 111 189 217 220 234 244 259 273 291 301 309 306 317
119 88 214 113 61 31 187 189 295 322 335 350 355 347 356 359 57 0 290 298 239 236 201 161 155 128 114 89 96 110 192 196 245 282 280 250 259 278 288 288 293 307 313 304
9 83 24 177 273 268 217 203 224 262 332 323 346 335 341 354 355 333 308 289 261 245 182 153 158 141 114 102 73 61 306 279 283 265 260 265 290 298 296 289 280 291 286 268
281 258 61 278 294 233 246 235 253 247 293 312 329 331 349 339 343 328 312 303 284 187 198 183 129 110 107 89 72 26 281 259 240 246 238 288 296 300 306 304 295 295 303 282
276 243 231 253 243 274 244 237 268 243 276 305 301 321 331 28 16 320 317 248 168 159 169 138 77 66 58 11 36 352 251 212 227 231 280 299 307 306 300 310 315 321 308 270
257 269 238 259 259 267 177 203 225 253 262 280 309 295 306 16 12 42 96 122 132 159 154 132 90 63 315 304 358 326 280 237 231 247 270 284 294 304 304 303 304 321 357 341
246 260 274 249 259 269 217 208 211 243 252 261 287 282 298 311 320 11 126 105 121 161 142 101 59 330 313 302 302 303 290 281 271 283 290 286 296 305 306 303 301 307 306 294
242 249 266 242 240 253 239 208 227 248 255 263 273 280 289 292 303 328 90 66 68 109 78 90 179 326 306 271 271 276 279 291 285 277 272 274 272 276 285 289 281 282 284 283
248 282 272 231 225 248 243 163 253 305 278 280 281 278 281 291 300 307 337 339 163 79 59 281 298 294 282 284 268 267 280 286 292 288 275 269 275 293 291 281 277 279 271 273
238 243 230 207 211 228 232 237 266 289 283 278 287 290 291 293 301 321 359 354 45 138 26 295 249 247 257 271 268 269 269 280 288 289 290 288 291 291 284 270 255 259 272 284
251 252 239 191 195 214 226 230 238 261 270 272 265 270 282 284 286 306 322 321 36 76 298 262 224 248 261 269 285 290 296 305 301 299 304 313 316 320 318 307 284 277 282 288
242 244 244 222 208 224 234 229 238 251 264 270 279 283 262 263 277 302 328 319 308 289 234 233 200 246 270 284 293 297 305 306 295 294 302 307 311 313 309 310 307 298 291 291
236 249 249 226 230 232 261 235 237 247 259 250 261 269 284 275 276 291 292 288 286 254 236 239 245 258 266 278 288 290 288 284 281 284 294 302 309 309 308 301 298 296 291 287
245 247 245 229 233 241 250 255 251 259 270 270 263 275 289 287 272 280 265 277 268 260 264 267 263 270 279 283 279 278 280 283 280 278 288 297 300 298 305 303 298 294 291 288
240 240 238 240 242 250 254 257 242 243 253 262 268 272 278 273 279 313 304 266 262 270 266 265 270 275 279 282 286 286 282 283 281 282 285 288 296 305 304 301 304 302 295 288
240 240 238 240 243 245 247 245 243 250 253 259 261 271 273 273 279 292 282 277 265 264 272 276 277 281 286 284 279 275 274 276 279 280 286 292 295 300 301 303 302 304 300 298
241 240 242 240 240 240 237 244 244 243 238 248 254 260 267 267 262 272 278 272 265 262 266 273 283 290 287 286 287 286 285 284 282 280 284 288 293 297 299 300 301 300 300 304
243 238 238 239 241 239 236 235 238 242 241 253 242 251 254 262 265 266 265 264 251 253 259 269 279 284 293 300 300 298 293 289 285 283 283 286 289 293 299 300 299 301 302 302
242 238 233 234 236 237 238 235 231 234 241 244 245 237 244 255 263 265 265 273 266 264 264 271 279 289 296 298 294 287 280 281 285 284 286 289 292 296 297 295 297 298 302 301